www.pogodaiklimat.ru

Погода и климат >> Архив погоды >> Россия >> Якутия >> Юрты


ПОГОДА в Юртах

  • Прогноз погоды в Юртах
  • Монитор погоды в Юртах

АРХИВ ПОГОДЫ в Юртах

Время (UTC), дата Ветер
(напр.,м/с)
 
Видим.   Явления Облачность Т
(С)
Тd
(С)
f
(%)
Тe
(С)
Тes
(С)
Комфортность P
(гПа)
Po
(гПа)
Тmin
(С)
Tmax
(С)
R
(мм)
R24
(мм)
S
(см)
09 12.03 штиль 0 50 км 4/0
[Ci fib]
-25.0 -28.9 70 -25 -25 1026.8 947.2 -23.5
12 12.03 штиль 0 50 км ясно -33.3 -35.6 80 -33 -33 опасность
обморожения
1030.4 947.8
15 12.03 штиль 0 50 км ясно -35.0 -37.4 79 -35 -35 опасность
обморожения
1031.3 948.2
18 12.03 штиль 0 50 км ясно -39.7 -41.7 81 -40 -40 опасность
обморожения
1032.7 948.0
21 12.03 Ю 1 50 км ясно -38.1 -40.3 80 -43 -43 опасность
обморожения
1032.6 948.4 -39.7 21
00 13.03 З 1 50 км 3/0
[Ci fib]
-36.5 -38.8 79 -41 -39 опасность
обморожения
1031.3 947.7
03 13.03 З 1 50 км 4/0
[Ci fib]
-25.9 -29.8 70 -30 -26 1026.1 946.3
06 13.03 штиль 0 50 км 4/0
[Ci fib]
-24.8 -28.7 70 -25 -23 1024.1 944.4
09 13.03 З 1 50 км 6/0
[Ci fib]
-27.0 -30.2 74 -31 -31 опасность
обморожения
1024.8 944.8 -24.0
12 13.03 штиль 0 50 км ясно -33.0 -36.0 74 -33 -33 опасность
обморожения
1024.9 943.0
15 13.03 штиль 0 50 км ясно -36.3 -38.4 81 -36 -36 опасность
обморожения
1028.5 945.1
18 13.03 штиль 0 50 км ясно -36.9 -39.1 80 -37 -37 опасность
обморожения
1028.5 944.9
21 13.03 штиль 0 50 км 6/0
[Ac trans Ci fib]
-35.0 -37.4 79 -35 -35 опасность
обморожения
1027.3 944.5 -36.9 21
00 14.03 Ю 2 50 км 8/0
[Ci fib]
-31.8 -34.1 80 -40 -38 опасность
обморожения
1026.1 944.4
03 14.03 Ю 1 50 км 10/0
[Ci fib]
-26.2 -30.9 64 -30 -26 1022.6 943.1
06 14.03 Ю 1 50 км 10/0
[Ci fib]
-24.6 -29.4 64 -28 -27 1021.7 942.6
09 14.03 З 1 50 км 8/0
[Ci fib]
-26.5 -30.4 70 -30 -30 1020.5 941.0 -24.4
12 14.03 штиль 0 50 км 4/0
[Ci fib]
-30.8 -33.2 79 -31 -31 опасность
обморожения
1021.8 940.7
15 14.03 штиль 0 50 км 3/0
[Ci fib]
-33.2 -35.6 79 -33 -33 опасность
обморожения
1022.1 940.4
18 14.03 штиль 0 50 км 10/0
[Cs]
-34.9 -36.5 85 -35 -35 опасность
обморожения
1023.1 940.6
21 14.03 штиль 0 50 км 10/0
[Cs]
-35.1 -36.8 84 -35 -35 опасность
обморожения
1022.5 940.1 -37.4 21
00 15.03 штиль 0 50 км 10/0
[Cs]
-31.6 -33.9 80 -32 -29 опасность
обморожения
1021.3 940.1
03 15.03 штиль 0 20 км слаб. снег 10/0
[Cs]
-24.2 -27.4 75 -24 -20 1017.9 939.3
06 15.03 З 1 20 км слаб. снег 10/0
[Cs]
-23.3 -27.3 70 -27 -25 1016.7 938.5
09 15.03 штиль 0 20 км слаб. снег 10/0
[Cs]
-23.9 -27.1 75 -24 -24 1016.5 938.0 -23.3 0.6
12 15.03 штиль 0 50 км слаб. снег 10/0
[Cs]
-27.7 -29.0 89 -28 -28 1018.3 938.8
15 15.03 штиль 0 50 км 10/0
[Cs]
-27.7 -29.5 85 -28 -28 1018.7 938.8
18 15.03 штиль 0 50 км 10/0
[Ci fib]
-29.1 -30.9 84 -29 -29 1019.5 939.3
21 15.03 З 1 50 км 3/0
[Ci fib]
-39.2 -41.2 81 -44 -44 опасность
обморожения
1023.7 939.9 -39.2 0.0 21
00 16.03 З 1 50 км 6/0
[Ci fib]
-28.9 -31.4 79 -33 -30 опасность
обморожения
1020.7 940.4
03 16.03 ЮЗ 1 50 км 10/0
[Ci fib]
-25.1 -28.3 75 -29 -25 1019.9 940.9
06 16.03 штиль 0 50 км 10/0
[Ci fib]
-23.1 -27.2 69 -23 -22 1020.0 941.5
09 16.03 штиль 0 50 км 6/0
[Ci fib]
-24.9 -28.9 69 -25 -25 1018.5 939.5 -22.8
12 16.03 штиль 0 50 км ясно -27.1 -29.5 80 -27 -27 1019.9 940.3
15 16.03 штиль 0 50 км ясно -35.1 -37.4 79 -35 -35 опасность
обморожения
1023.1 940.6
18 16.03 штиль 0 50 км ясно -36.9 -46.3 37 -37 -37 опасность
обморожения
1024.6 941.1
21 16.03 штиль 0 50 км ясно -39.2 -41.2 81 -39 -39 опасность
обморожения
1025.3 941.4 -39.2 21
00 17.03 штиль 0 50 км ясно -29.6 -32.0 80 -30 -26 1022.3 947.0
03 17.03 штиль 0 50 км ясно -26.7 -29.9 74 -27 -21 1020.0 940.5
06 17.03 штиль 0 50 км ясно -23.3 -28.1 65 -23 -21 1017.3 939.1
09 17.03 штиль 0 50 км ясно -25.0 -28.1 75 -25 -25 1018.2 939.2 -22.9
12 17.03 штиль 0 50 км ясно -30.0 -32.4 79 -30 -30 1020.3 939.7
15 17.03 штиль 0 50 км ясно -34.4 -36.8 79 -34 -34 опасность
обморожения
1023.5 941.2
18 17.03 штиль 0 50 км ясно -38.8 -41.2 78 -39 -39 опасность
обморожения
1025.1 941.2
21 17.03 штиль 0 50 км ясно -40.2 -42.2 81 -40 -40 опасность
обморожения
1025.7 941.4 -40.2 21
00 18.03 н/о -34.4 1023.6 942.1
03 18.03 Ю 1 50 км 4/0
[Ci fib]
-26.0 -29.8 70 -30 -25 1020.6 941.2
06 18.03 штиль 0 50 км 3/0
[Ci fib]
-23.3 -28.1 65 -23 -21 1016.9 938.5
09 18.03 штиль 0 50 км 4/0
[Ci fib]
-26.0 -29.8 70 -26 -26 1021.1 941.6 -23.3
12 18.03 Ю 1 50 км ясно -32.6 -34.2 86 -37 -37 опасность
обморожения
1024.5 942.7
15 18.03 штиль 0 50 км ясно -35.1 -36.8 84 -35 -35 опасность
обморожения
1026.1 943.4
18 18.03 50 км ясно -38.3 -39.7 87 1028.3 944.3
21 18.03 штиль 0 50 км ясно -40.6 -42.1 85 -41 -41 опасность
обморожения
1030.3 945.4 -40.6 21
00 19.03 Ю 3 50 км ясно -31.6 -33.9 80 -42 -39 опасность
обморожения
1028.0 946.3 -42.2
03 19.03 Ю 4 50 км ясно -25.1 -29.0 70 -35 -32 опасность
обморожения
1015.3 945.8
06 19.03 штиль 0 50 км 3/0
[Ci fib]
-22.5 -30.1 50 -23 -20 1024.3 945.7

 

Местоположение метеостанции Юрты (Якутия, Россия): широта 64.05 долгота 141.80 высота над уровнем моря 590 м.

В архиве по умолчанию представлена погода в Юртах за последнюю неделю. Архивные данные за месяц целиком и за предыдущие месяцы, начиная с января 2011 года, Вы можете получить, выбрав интересующий диапазон дат из раскрывающегося списка и нажав кнопку "Ввод!".


*Определитесь, кто Вы:
робот инопланетянин человек

Внимание! Время в таблицах - всемирное. Для получения местного времени необходимо прибавить поправку, которая равна 10 ч.

Смотрите также архив погоды в соседних городах и на ближайших метеорологических станциях:

Погода в Агаякане (Якутия, Россия) (80 км)
Погода в Усть-Нере (Якутия, Россия) (82 км)
Погода в Оймяконе (Якутия, Россия) (110 км)
Погода в Восточной (Якутия, Россия) (142 км)
Погода в Делянкире (Якутия, Россия) (187 км)
Погода в Усть-Моме (Якутия, Россия) (275 км)
Погода в Теплом Ключе (Якутия, Россия) (286 км)
Погода в Томпо (Якутия, Россия) (293 км)
Погода в Иэме (Якутия, Россия) (317 км)
Погода в Сусумане (Магаданская область, Россия) (344 км)

Пояснения к столбцам:

Ветер - указаны скорость ветра в м/с - средняя за 10 мин, порывы в срок и между сроками (в фигурных скобках) и направление, откуда дует ветер: С - северный, СВ - северо-восточный, В - восточный, ЮВ - юго-восточный, Ю - южный, ЮЗ - юго-западный, З - западный, СЗ - северо-западный.
Видимость - горизонтальная дальность видимости в метрах или километрах. При видимости от 1 до 10 км при отсутствии осадков обычно наблюдается дымка, при ухудшении видимости до 1 км и менее - туман. В сухую погоду видимость может ухудшаться дымом, пылью или мглою.
Явления - указаны атмосферные явления, наблюдавшиеся в срок или в последний час перед сроком; фигурными скобками обозначены явления, наблюдавшиеся между сроками (за 1-3 часа до срока); квадратными скобками обозначены град или гололедные отложения с указанием их диаметра в мм.
Облачность - указаны через наклонную черту общая и нижняя облачность в баллах и высота нижней границы облаков в метрах; квадратными скобками обозначены формы облаков: Ci - перистые, Cs - перисто-слоистые, Cc - перисто-кучевые, Ac - высококучевые, As - высокослоистые, Sc - слоисто-кучевые, Ns - слоисто-дождевые, Cu - кучевые, Cb - кучево-дождевые. Подробнее классификацию облаков см. в Атласе облаков (PDF).
T - Температура воздуха - температура, измеренная на высоте 2 м над землей.
Td - Температура точки росы - температура, при понижении до которой содержащийся в воздухе водяной пар достигнет насыщения.
f - Относительная влажность воздуха - влажноcть воздуха, измеренная на высоте 2 м над землей.
Te - Эффективная температура - температура, которую ощущает одетый по сезону человек в тени. Характеристика душности погоды. При расчете учитывается влияние влажности воздуха и скорости ветра на теплоощущения человека.
Tes - Эффективная температура на солнце - температура, которую ощущает человек, с поправкой на солнечный нагрев. Характеристика знойности погоды. Зависит от высоты солнца над горизонтом, облачности и скорости ветра. Ночью, в пасмурную погоду, а также при ветре 12 м/с и более поправка равна нулю.
P - Атмосферное давление - приведенное к уровню моря атмосферное давление.
Po - Атмосферное давление - измеренное на уровне метеостанции атмосферное давление.
Tmin - Минимальная температура - минимум температуры воздуха на высоте 2 м над землей.
Tmax - Максимальная температура - максимум температуры воздуха на высоте 2 м над землей.
R - Количество осадков - Количество выпавших осадков за период времени, мм. При наведении курсора мыши на число - период времени, за который выпало указанное количество осадков.
R24 - Количество осадков - Количество выпавших осадков за 24 часа, мм.
S - Снежный покров - Высота снежного покрова, см. При наведении курсора мыши на число - состояние снежного покрова и степень покрытия местности в баллах.